| time (UTC) | temp C | wind direction | speed KPH | gust KPH | rain 1hr cm | rain 24hr cm | rain mn cm | humidity % | barometer mb |
| 20260505035557 | 16 | 0 | 0.0 | 0.0 | 0.00 | 0.00 | 0.00 | 74 | 1010.4 |
| 20260505035053 | 16 | 0 | 0.0 | 0.0 | 0.00 | 0.00 | 0.00 | 74 | 1010.3 |
| 20260505034552 | 16 | 0 | 0.0 | 0.0 | 0.00 | 0.00 | 0.00 | 74 | 1010.2 |
| 20260505034053 | 16 | 0 | 0.0 | 0.0 | 0.00 | 0.00 | 0.00 | 75 | 1010.2 |
| 20260505033553 | 16 | 0 | 0.0 | 0.0 | 0.00 | 0.00 | 0.00 | 73 | 1010.2 |
| 20260505033053 | 17 | 0 | 0.0 | 0.0 | 0.00 | 0.00 | 0.00 | 72 | 1010.2 |
| 20260505032552 | 17 | 0 | 0.0 | 0.0 | 0.00 | 0.00 | 0.00 | 72 | 1010.2 |
| 20260505032057 | 17 | 0 | 0.0 | 0.0 | 0.00 | 0.00 | 0.00 | 72 | 1010.1 |
| 20260505031600 | 17 | 0 | 0.0 | 0.0 | 0.00 | 0.00 | 0.00 | 72 | 1010.1 |
| 20260505031053 | 18 | 0 | 0.0 | 0.0 | 0.00 | 0.00 | 0.00 | 70 | 1010.1 |
| 20260505030553 | 18 | 0 | 0.0 | 0.0 | 0.00 | 0.00 | 0.00 | 68 | 1010.0 |
| 20260505030055 | 18 | 0 | 0.0 | 0.0 | 0.00 | 0.00 | 0.00 | 67 | 1009.9 |
| 20260505025552 | 18 | 0 | 0.0 | 0.0 | 0.00 | 0.00 | 0.00 | 68 | 1009.9 |
| 20260505025052 | 18 | 0 | 0.0 | 1.6 | 0.00 | 0.00 | 0.00 | 68 | 1009.9 |
| 20260505024555 | 19 | 0 | 0.0 | 1.6 | 0.00 | 0.00 | 0.00 | 68 | 1009.8 |
| 20260505024052 | 20 | 0 | 0.0 | 1.6 | 0.00 | 0.00 | 0.00 | 65 | 1009.7 |
| 20260505023553 | 20 | 0 | 0.0 | 1.6 | 0.00 | 0.00 | 0.00 | 64 | 1009.7 |
| 20260505023054 | 21 | 0 | 0.0 | 1.6 | 0.00 | 0.00 | 0.00 | 59 | 1009.6 |
| 20260505022553 | 21 | 0 | 0.0 | 1.6 | 0.00 | 0.00 | 0.00 | 59 | 1009.6 |
| 20260505022053 | 21 | 0 | 0.0 | 1.6 | 0.00 | 0.00 | 0.00 | 57 | 1009.6 |
| 20260505021558 | 21 | 0 | 0.0 | 3.2 | 0.00 | 0.00 | 0.00 | 57 | 1009.6 |
| 20260505021052 | 21 | 134 | 0.0 | 4.8 | 0.00 | 0.00 | 0.00 | 57 | 1009.6 |
| 20260505020552 | 21 | 0 | 0.0 | 6.4 | 0.00 | 0.00 | 0.00 | 58 | 1009.6 |
| 20260505020051 | 21 | 203 | 1.6 | 6.4 | 0.00 | 0.00 | 0.00 | 57 | 1009.6 |
| 20260505015554 | 21 | 214 | 0.0 | 6.4 | 0.00 | 0.00 | 0.00 | 56 | 1009.5 |
| 20260505015053 | 21 | 134 | 0.0 | 6.4 | 0.00 | 0.00 | 0.00 | 54 | 1009.6 |
| 20260505014626 | 22 | 205 | 1.6 | 6.4 | 0.00 | 0.00 | 0.00 | 54 | 1009.5 |
| 20260505014053 | 22 | 222 | 1.6 | 6.4 | 0.00 | 0.00 | 0.00 | 53 | 1009.6 |
| 20260505013553 | 23 | 210 | 0.0 | 6.4 | 0.00 | 0.00 | 0.00 | 51 | 1009.5 |
| 20260505013053 | 23 | 0 | 1.6 | 6.4 | 0.00 | 0.00 | 0.00 | 49 | 1009.5 |
| 20260505012553 | 23 | 254 | 0.0 | 6.4 | 0.00 | 0.00 | 0.00 | 47 | 1009.6 |
| 20260505012054 | 23 | 225 | 1.6 | 6.4 | 0.00 | 0.00 | 0.00 | 43 | 1009.5 |
| 20260505011603 | 24 | 328 | 0.0 | 8.0 | 0.00 | 0.00 | 0.00 | 45 | 1009.6 |
| 20260505011054 | 24 | 0 | 0.0 | 8.0 | 0.00 | 0.00 | 0.00 | 47 | 1009.6 |
| 20260505010553 | 24 | 250 | 1.6 | 6.4 | 0.00 | 0.00 | 0.00 | 46 | 1009.7 |
| 20260505010051 | 24 | 263 | 1.6 | 6.4 | 0.00 | 0.00 | 0.00 | 47 | 1009.6 |
| 20260505005553 | 24 | 231 | 1.6 | 6.4 | 0.00 | 0.00 | 0.00 | 47 | 1009.6 |
| 20260505005054 | 24 | 0 | 1.6 | 8.0 | 0.00 | 0.00 | 0.00 | 47 | 1009.6 |
| 20260505004555 | 24 | 0 | 1.6 | 8.0 | 0.00 | 0.00 | 0.00 | 47 | 1009.7 |
| 20260505004053 | 24 | 182 | 1.6 | 6.4 | 0.00 | 0.00 | 0.00 | 47 | 1009.6 |
| 20260505003556 | 24 | 0 | 1.6 | 6.4 | 0.00 | 0.00 | 0.00 | 46 | 1009.7 |
| 20260505003055 | 24 | 281 | 1.6 | 6.4 | 0.00 | 0.00 | 0.00 | 45 | 1009.7 |
| 20260505002556 | 24 | 0 | 1.6 | 8.0 | 0.00 | 0.00 | 0.00 | 45 | 1009.7 |
| 20260505002052 | 24 | 257 | 1.6 | 8.0 | 0.00 | 0.00 | 0.00 | 47 | 1009.7 |
| 20260505001631 | 24 | 285 | 1.6 | 6.4 | 0.00 | 0.00 | 0.00 | 44 | 1009.7 |
| 20260505001055 | 24 | 0 | 0.0 | 6.4 | 0.00 | 0.00 | 0.00 | 48 | 1009.7 |
| 20260505000553 | 25 | 86 | 0.0 | 9.7 | 0.00 | 0.00 | 0.00 | 46 | 1009.7 |
| 20260505000136 | 24 | 263 | 1.6 | 9.7 | 0.00 | 0.00 | 0.00 | 48 | 1009.7 |
| 20260504235555 | 25 | 216 | 0.0 | 9.7 | 0.00 | 0.00 | 0.00 | 45 | 1009.7 |
| 20260504235053 | 25 | 204 | 1.6 | 8.0 | 0.00 | 0.00 | 0.00 | 45 | 1009.7 |
| 20260504234615 | 25 | 241 | 1.6 | 6.4 | 0.00 | 0.00 | 0.00 | 45 | 1009.9 |
| 20260504234053 | 25 | 0 | 0.0 | 8.0 | 0.00 | 0.00 | 0.00 | 44 | 1009.9 |
| 20260504233556 | 25 | 0 | 0.0 | 11.3 | 0.00 | 0.00 | 0.00 | 46 | 1009.9 |
| 20260504233106 | 25 | 226 | 3.2 | 11.3 | 0.00 | 0.00 | 0.00 | 44 | 1009.9 |
| 20260504232553 | 25 | 210 | 3.2 | 8.0 | 0.00 | 0.00 | 0.00 | 45 | 1010.0 |
| 20260504232052 | 25 | 0 | 3.2 | 8.0 | 0.00 | 0.00 | 0.00 | 41 | 1010.0 |
| 20260504231553 | 25 | 13 | 1.6 | 8.0 | 0.00 | 0.00 | 0.00 | 41 | 1010.0 |
| 20260504231052 | 26 | 249 | 0.0 | 6.4 | 0.00 | 0.00 | 0.00 | 42 | 1010.1 |
| 20260504230552 | 26 | 110 | 0.0 | 6.4 | 0.00 | 0.00 | 0.00 | 43 | 1010.0 |
| 20260504230053 | 26 | 263 | 0.0 | 6.4 | 0.00 | 0.00 | 0.00 | 41 | 1010.1 |
| 20260504225554 | 26 | 293 | 0.0 | 3.2 | 0.00 | 0.00 | 0.00 | 44 | 1010.0 |
| 20260504225053 | 26 | 0 | 1.6 | 8.0 | 0.00 | 0.00 | 0.00 | 42 | 1010.1 |
| 20260504224607 | 26 | 0 | 1.6 | 9.7 | 0.00 | 0.00 | 0.00 | 41 | 1010.1 |
| 20260504224053 | 25 | 334 | 4.8 | 9.7 | 0.00 | 0.00 | 0.00 | 43 | 1010.1 |
| 20260504223551 | 26 | 0 | 0.0 | 8.0 | 0.00 | 0.00 | 0.00 | 42 | 1010.1 |
| 20260504223056 | 26 | 287 | 1.6 | 8.0 | 0.00 | 0.00 | 0.00 | 43 | 1010.1 |
| 20260504222553 | 25 | 290 | 1.6 | 11.3 | 0.00 | 0.00 | 0.00 | 45 | 1010.1 |
| 20260504222053 | 25 | 328 | 3.2 | 11.3 | 0.00 | 0.00 | 0.00 | 43 | 1010.2 |
| 20260504221556 | 25 | 297 | 1.6 | 11.3 | 0.00 | 0.00 | 0.00 | 46 | 1010.2 |
| 20260504221052 | 25 | 0 | 3.2 | 11.3 | 0.00 | 0.00 | 0.00 | 46 | 1010.3 |
| 20260504220558 | 25 | 295 | 4.8 | 9.7 | 0.00 | 0.00 | 0.00 | 44 | 1010.3 |
| 20260504220059 | 25 | 233 | 1.6 | 9.7 | 0.00 | 0.00 | 0.00 | 45 | 1010.4 |
| 20260504215553 | 25 | 326 | 1.6 | 9.7 | 0.00 | 0.00 | 0.00 | 44 | 1010.5 |
| 20260504215056 | 26 | 2 | 1.6 | 9.7 | 0.00 | 0.00 | 0.00 | 41 | 1010.6 |
| 20260504214553 | 26 | 223 | 1.6 | 6.4 | 0.00 | 0.00 | 0.00 | 44 | 1010.6 |
| 20260504214053 | 25 | 342 | 3.2 | 8.0 | 0.00 | 0.00 | 0.00 | 44 | 1010.7 |
| 20260504213553 | 25 | 236 | 3.2 | 9.7 | 0.00 | 0.00 | 0.00 | 44 | 1010.6 |
| 20260504213125 | 25 | 0 | 0.0 | 11.3 | 0.00 | 0.00 | 0.00 | 42 | 1010.6 |
| 20260504212554 | 25 | 179 | 3.2 | 11.3 | 0.00 | 0.00 | 0.00 | 40 | 1010.7 |
| 20260504212055 | 25 | 0 | 1.6 | 11.3 | 0.00 | 0.00 | 0.00 | 43 | 1010.8 |
| 20260504211601 | 25 | 0 | 1.6 | 9.7 | 0.00 | 0.00 | 0.00 | 44 | 1010.8 |
| 20260504211053 | 25 | 321 | 4.8 | 9.7 | 0.00 | 0.00 | 0.00 | 45 | 1010.8 |
| 20260504210553 | 25 | 356 | 3.2 | 9.7 | 0.00 | 0.00 | 0.00 | 45 | 1010.8 |
| 20260504210055 | 25 | 245 | 3.2 | 8.0 | 0.00 | 0.00 | 0.00 | 47 | 1010.9 |
| 20260504205553 | 25 | 326 | 1.6 | 9.7 | 0.00 | 0.00 | 0.00 | 47 | 1010.9 |
| 20260504205053 | 24 | 123 | 0.0 | 9.7 | 0.00 | 0.00 | 0.00 | 46 | 1011.0 |
| 20260504204554 | 24 | 319 | 4.8 | 11.3 | 0.00 | 0.00 | 0.00 | 44 | 1010.8 |
| 20260504204053 | 24 | 342 | 3.2 | 11.3 | 0.00 | 0.00 | 0.00 | 45 | 1010.9 |
| 20260504203557 | 24 | 0 | 1.6 | 9.7 | 0.00 | 0.00 | 0.00 | 50 | 1011.0 |
| 20260504203109 | 24 | 40 | 3.2 | 9.7 | 0.00 | 0.00 | 0.00 | 46 | 1011.0 |
| 20260504202553 | 25 | 319 | 1.6 | 6.4 | 0.00 | 0.00 | 0.00 | 48 | 1011.0 |
| 20260504202054 | 25 | 180 | 1.6 | 9.7 | 0.00 | 0.00 | 0.00 | 48 | 1011.0 |
| 20260504201552 | 24 | 23 | 1.6 | 11.3 | 0.00 | 0.00 | 0.00 | 51 | 1011.0 |
| 20260504201053 | 24 | 23 | 1.6 | 11.3 | 0.00 | 0.00 | 0.00 | 50 | 1011.0 |
| 20260504200554 | 24 | 335 | 0.0 | 8.0 | 0.00 | 0.00 | 0.00 | 52 | 1011.1 |
| 20260504200054 | 23 | 36 | 1.6 | 9.7 | 0.00 | 0.00 | 0.00 | 48 | 1011.1 |
| 20260504195555 | 24 | 265 | 1.6 | 9.7 | 0.00 | 0.00 | 0.00 | 47 | 1011.2 |
| 20260504195053 | 23 | 282 | 1.6 | 9.7 | 0.00 | 0.00 | 0.00 | 49 | 1011.2 |
| 20260504194604 | 24 | 184 | 1.6 | 9.7 | 0.00 | 0.00 | 0.00 | 50 | 1011.1 |
| 20260504194053 | 23 | 195 | 3.2 | 9.7 | 0.00 | 0.00 | 0.00 | 47 | 1011.1 |
| 20260504193554 | 23 | 193 | 3.2 | 6.4 | 0.00 | 0.00 | 0.00 | 47 | 1011.1 |
| 20260504193100 | 23 | 268 | 1.6 | 6.4 | 0.00 | 0.00 | 0.00 | 47 | 1011.1 |
| 20260504192552 | 23 | 123 | 1.6 | 6.4 | 0.00 | 0.00 | 0.00 | 48 | 1011.1 |
| 20260504192053 | 23 | 257 | 1.6 | 6.4 | 0.00 | 0.00 | 0.00 | 50 | 1011.0 |
| 20260504191551 | 23 | 0 | 0.0 | 4.8 | 0.00 | 0.00 | 0.00 | 47 | 1011.0 |
| 20260504191054 | 23 | 188 | 1.6 | 6.4 | 0.00 | 0.00 | 0.00 | 52 | 1011.1 |
| 20260504190557 | 23 | 276 | 0.0 | 9.7 | 0.00 | 0.00 | 0.00 | 51 | 1011.2 |
| 20260504190114 | 23 | 123 | 1.6 | 9.7 | 0.00 | 0.00 | 0.00 | 52 | 1011.1 |
| 20260504185554 | 23 | 68 | 0.0 | 6.4 | 0.00 | 0.00 | 0.00 | 50 | 1011.1 |
| 20260504185053 | 22 | 0 | 1.6 | 6.4 | 0.00 | 0.00 | 0.00 | 51 | 1011.3 |
| 20260504184606 | 22 | 289 | 1.6 | 11.3 | 0.00 | 0.00 | 0.00 | 52 | 1011.2 |
| 20260504184053 | 22 | 232 | 1.6 | 11.3 | 0.00 | 0.00 | 0.00 | 52 | 1011.2 |
| 20260504183556 | 21 | 92 | 3.2 | 11.3 | 0.00 | 0.00 | 0.00 | 52 | 1011.1 |
| 20260504183056 | 21 | 143 | 0.0 | 4.8 | 0.00 | 0.00 | 0.00 | 53 | 1011.2 |
| 20260504182557 | 21 | 0 | 0.0 | 6.4 | 0.00 | 0.00 | 0.00 | 52 | 1011.2 |
| 20260504182054 | 21 | 238 | 1.6 | 6.4 | 0.00 | 0.00 | 0.00 | 57 | 1011.3 |
| 20260504181558 | 20 | 116 | 1.6 | 6.4 | 0.00 | 0.00 | 0.00 | 59 | 1011.3 |
| 20260504181054 | 20 | 0 | 1.6 | 8.0 | 0.00 | 0.00 | 0.00 | 56 | 1011.2 |
| 20260504180553 | 20 | 165 | 1.6 | 8.0 | 0.00 | 0.00 | 0.00 | 55 | 1011.3 |
| 20260504180059 | 20 | 140 | 0.0 | 4.8 | 0.00 | 0.00 | 0.00 | 56 | 1011.2 |
| 20260504175556 | 20 | 257 | 1.6 | 4.8 | 0.00 | 0.00 | 0.00 | 59 | 1011.3 |
| 20260504175057 | 20 | 287 | 1.6 | 6.4 | 0.00 | 0.00 | 0.00 | 57 | 1011.1 |
| 20260504174612 | 20 | 296 | 0.0 | 9.7 | 0.00 | 0.00 | 0.00 | 58 | 1011.1 |
| 20260504174053 | 19 | 72 | 3.2 | 9.7 | 0.00 | 0.00 | 0.00 | 62 | 1011.1 |
| 20260504173552 | 20 | 81 | 1.6 | 6.4 | 0.00 | 0.00 | 0.00 | 61 | 1011.0 |
| 20260504173115 | 19 | 198 | 1.6 | 9.7 | 0.00 | 0.00 | 0.00 | 56 | 1011.0 |
| 20260504172552 | 19 | 129 | 1.6 | 9.7 | 0.00 | 0.00 | 0.00 | 58 | 1011.1 |
| 20260504172056 | 20 | 77 | 0.0 | 6.4 | 0.00 | 0.00 | 0.00 | 65 | 1011.2 |
| 20260504171555 | 20 | 224 | 1.6 | 6.4 | 0.00 | 0.00 | 0.00 | 66 | 1011.2 |
| 20260504171056 | 20 | 120 | 0.0 | 4.8 | 0.00 | 0.00 | 0.00 | 66 | 1011.2 |
| 20260504170554 | 20 | 130 | 0.0 | 4.8 | 0.00 | 0.00 | 0.00 | 65 | 1011.2 |
| 20260504170109 | 20 | 154 | 0.0 | 4.8 | 0.00 | 0.00 | 0.00 | 64 | 1011.2 |
| 20260504151053 | 12 | 0 | 0.0 | 0.0 | 0.00 | 0.00 | 0.00 | 92 | 1010.9 |
| 20260504150553 | 12 | 0 | 0.0 | 0.0 | 0.00 | 0.00 | 0.00 | 93 | 1010.9 |
| 20260504141053 | 9 | 0 | 0.0 | 0.0 | 0.00 | 0.00 | 0.00 | 93 | 1010.2 |
| 20260504140553 | 9 | 0 | 0.0 | 0.0 | 0.00 | 0.00 | 0.00 | 93 | 1010.2 |
| 20260504140109 | 9 | 0 | 0.0 | 0.0 | 0.00 | 0.00 | 0.00 | 93 | 1010.1 |
| 20260504130555 | 9 | 0 | 0.0 | 0.0 | 0.00 | 0.00 | 0.00 | 92 | 1010.0 |
| 20260504130108 | 9 | 0 | 0.0 | 0.0 | 0.00 | 0.00 | 0.00 | 92 | 1009.9 |
| 20260504110554 | 10 | 0 | 0.0 | 0.0 | 0.00 | 0.00 | 0.00 | 91 | 1009.8 |
| 20260504110117 | 10 | 0 | 0.0 | 0.0 | 0.00 | 0.00 | 0.00 | 91 | 1009.7 |
| 20260504100555 | 10 | 0 | 0.0 | 0.0 | 0.00 | 0.00 | 0.00 | 91 | 1009.9 |
| 20260504090118 | 10 | 0 | 0.0 | 0.0 | 0.00 | 0.00 | 0.00 | 90 | 1009.7 |
| 20260504081556 | 11 | 0 | 0.0 | 0.0 | 0.00 | 0.00 | 0.00 | 88 | 1009.7 |
| 20260504081054 | 11 | 0 | 0.0 | 1.6 | 0.00 | 0.00 | 0.00 | 88 | 1009.8 |
| 20260504080556 | 11 | 0 | 0.0 | 1.6 | 0.00 | 0.00 | 0.00 | 88 | 1009.8 |
| 20260504060103 | 12 | 0 | 0.0 | 0.0 | 0.00 | 0.00 | 0.00 | 80 | 1009.9 |
| 20260504050554 | 14 | 0 | 0.0 | 0.0 | 0.00 | 0.00 | 0.00 | 74 | 1009.9 |
| 20260504050107 | 14 | 0 | 0.0 | 0.0 | 0.00 | 0.00 | 0.00 | 74 | 1009.8 |
| 20260504045557 | 14 | 0 | 0.0 | 0.0 | 0.00 | 0.00 | 0.00 | 75 | 1009.9 |
| 20260504045054 | 15 | 0 | 0.0 | 0.0 | 0.00 | 0.00 | 0.00 | 73 | 1010.0 |
| 20260504044602 | 15 | 0 | 0.0 | 0.0 | 0.00 | 0.00 | 0.00 | 74 | 1010.0 |
| 20260504044054 | 15 | 0 | 0.0 | 0.0 | 0.00 | 0.00 | 0.00 | 77 | 1010.0 |
| 20260504043555 | 15 | 0 | 0.0 | 0.0 | 0.00 | 0.00 | 0.00 | 69 | 1009.9 |
| 20260504043053 | 15 | 0 | 0.0 | 0.0 | 0.00 | 0.00 | 0.00 | 69 | 1009.9 |
| 20260504042554 | 15 | 0 | 0.0 | 0.0 | 0.00 | 0.00 | 0.00 | 69 | 1009.9 |
| 20260504042053 | 15 | 0 | 0.0 | 0.0 | 0.00 | 0.00 | 0.00 | 68 | 1009.9 |
| 20260504041553 | 16 | 0 | 0.0 | 0.0 | 0.00 | 0.00 | 0.00 | 68 | 1010.0 |
| 20260504041053 | 16 | 0 | 0.0 | 0.0 | 0.00 | 0.00 | 0.00 | 66 | 1009.9 |
| 20260504040553 | 16 | 0 | 0.0 | 0.0 | 0.00 | 0.00 | 0.00 | 67 | 1009.8 |
| 20260504040107 | 16 | 0 | 0.0 | 0.0 | 0.00 | 0.00 | 0.00 | 66 | 1009.8 |